Location: Goll?ig?dem
(16.6773°N, 80.7332°E)
Time: 00:38:26
(UTC+00:00)

COSMOS 2455 - Pass Details

Date: 19 May 2025
Orbit: 899 x 909 km, 67.1° (Epoch: 18 June)

Event Time Altitude Azimuth Distance (km) Brightness Sun altitude
Rises 22:02:21 0° 353° (N) 3,529 6.3 -27.0°
Reaches altitude 10° 22:05:06 10° 2° (N) 2,587 5.6 -26.5°
Maximum altitude 22:10:30 34° 66° (ENE) 1,440 4.4 -25.4°
Drops below altitude 10° 22:15:53 10° 130° (SE) 2,582 5.4 -24.3°
Sets 22:18:36 0° 139° (SE) 3,521 6.0 -23.7°
